Aurora, OR

9:23 PM PDT on April 19, 2018 (GMT -0700)
Aurora State

Weather History for KUAO - April, 2013

Change the Weather History Date:

Monday, April 29, 2013

  Actual Average Record
Temperature  
Mean Temperature 50 °F -  
Max Temperature 58 °F - 84 °F (1998)
Min Temperature 37 °F - 36 °F (1999)
Degree Days  
Heating Degree Days 17    
Month to date heating degree days 376  
Since 1 July heating degree days 4030  
Cooling Degree Days 0    
Month to date cooling degree days 0  
Year to date cooling degree days 0  
Moisture  
Dew Point 38 °F    
Average Humidity 66    
Maximum Humidity 89    
Minimum Humidity 42    
Precipitation  
Precipitation 0.00 in - 0.49 in (1969)
Month to date precipitation 1.90  
Year to date precipitation 7.91  
Sea Level Pressure  
Sea Level Pressure 30.17 in    
Wind  
Wind Speed 7 mph (West)    
Max Wind Speed 15 mph    
Max Gust Speed 22 mph    
Visibility 10 miles    
Events      
T = Trace of Precipitation, MM = Missing Value Source: NWS Daily Summary

Daily Weather History Graph

Daily Weather History Graph

Search for Another Location

Airport or City:

Astronomy

Apr. 29, 2013 Rise Set
Actual Time 6:02 AM PDT 8:15 PM PDT
Civil Twilight 5:29 AM PDT 8:47 PM PDT
Nautical Twilight 4:49 AM PDT 9:27 PM PDT
Astronomical Twilight 4:05 AM PDT 10:12 PM PDT
Moon No Moon Rise 9:24 AM PDT (4/29)
Length of Visible Light 15h 17m
Length of Day
14h 12m
Waning Gibbous, 79% of the Moon is Illuminated
Apr 29
Waning Gibbous
May 2
Last Quarter
May 9
New
May 17
First Quarter
May 24
Full

Hourly Weather History & Observations

Time (PDT) Temp. Dew Point Humidity Pressure Visibility Wind Dir Wind Speed Gust Speed Precip Events Conditions
12:53 AM 54.0 °F 44.1 °F 69% 30.12 in 10.0 mi SW 10.4 mph 17.3 mph N/A   Overcast
1:53 AM 54.0 °F 45.0 °F 72% 30.12 in 10.0 mi SSW 13.8 mph 21.9 mph N/A   Overcast
2:53 AM 53.1 °F 46.9 °F 80% 30.10 in 10.0 mi SSW 10.4 mph 21.9 mph N/A   Overcast
3:53 AM 52.0 °F 48.0 °F 86% 30.10 in 10.0 mi SSW 12.7 mph 20.7 mph N/A   Overcast
4:53 AM 52.0 °F 48.0 °F 86% 30.11 in 10.0 mi SW 8.1 mph 19.6 mph N/A   Overcast
5:53 AM 52.0 °F 46.9 °F 83% 30.12 in 10.0 mi WSW 4.6 mph - N/A   Overcast
6:35 AM 51.8 °F 42.8 °F 71% 30.13 in 10.0 mi West 4.6 mph - N/A   Overcast
6:53 AM 51.1 °F 44.1 °F 77% 30.14 in 10.0 mi Variable 4.6 mph - N/A   Overcast
7:53 AM 51.1 °F 42.1 °F 71% 30.16 in 10.0 mi Calm Calm - N/A   Partly Cloudy
8:53 AM 51.1 °F 39.9 °F 66% 30.18 in 10.0 mi WSW 9.2 mph - N/A   Overcast
9:53 AM 54.0 °F 37.9 °F 55% 30.18 in 10.0 mi WNW 12.7 mph 17.3 mph N/A   Partly Cloudy
10:53 AM 55.0 °F 35.1 °F 47% 30.19 in 10.0 mi West 8.1 mph - N/A   Scattered Clouds
11:53 AM 55.9 °F 36.0 °F 47% 30.19 in 10.0 mi West 6.9 mph - N/A   Overcast
12:53 PM 55.9 °F 37.0 °F 49% 30.19 in 10.0 mi West 6.9 mph 16.1 mph N/A   Mostly Cloudy
1:53 PM 57.0 °F 42.1 °F 57% 30.19 in 10.0 mi Variable 6.9 mph - N/A   Mostly Cloudy
2:53 PM 55.0 °F 39.0 °F 55% 30.18 in 10.0 mi North 3.5 mph - N/A   Overcast
3:53 PM 55.9 °F 36.0 °F 47% 30.18 in 10.0 mi NNW 5.8 mph - N/A   Overcast
4:53 PM 55.9 °F 34.0 °F 44% 30.18 in 10.0 mi North 12.7 mph 17.3 mph N/A   Overcast
5:53 PM 55.9 °F 33.1 °F 42% 30.19 in 10.0 mi NNW 9.2 mph 18.4 mph N/A   Partly Cloudy
6:53 PM 53.1 °F 32.0 °F 45% 30.19 in 10.0 mi North 16.1 mph 20.7 mph N/A   Partly Cloudy
7:53 PM 50.0 °F 28.9 °F 44% 30.20 in 10.0 mi NNW 8.1 mph - N/A   Clear
8:53 PM 46.9 °F 28.9 °F 50% 30.22 in 10.0 mi Variable 6.9 mph - N/A   Clear
9:53 PM 44.1 °F 30.0 °F 58% 30.24 in 10.0 mi Calm Calm - N/A   Clear
10:53 PM 43.0 °F 32.0 °F 65% 30.25 in 10.0 mi Calm Calm - N/A   Clear
11:53 PM 41.0 °F 32.0 °F 70% 30.26 in 10.0 mi Calm Calm - N/A   Clear